User: anonymous   Login
Location: IoMAS Observatory
(54.1780°N, 4.6265°W)
Time: 02:51:46
(UTC+01:00)
Language:

ISS - Orbit

View from above orbital plane
View from above orbital plane
View from above satellite
View from above satellite

Ground track
Ground track

The orbit data is extracted from the following two-line orbital elements,

1 25544U 98067A   18322.42025504  .00016717  00000-0  10270-3 0  9038
2 25544  51.6408 330.1334 0004892  57.9857 302.1770 15.54009723 22490
Epoch (UTC): 18 November 2018 10:05:10
Eccentricity: 0.0004892
inclination: 51.6408°
perigee height: 402 km
apogee height: 408 km
right ascension of ascending node: 330.1334°
argument of perigee: 57.9857°
revolutions per day: 15.54009723
mean anomaly at epoch: 302.1770°
orbit number at epoch: 2249

The dashed part of the orbit path shows where the satellite is in the earth's shadow,  

DLR